Location: Old Broadwell Mill Observatory
(33.8015°N, 85.8137°W)
Time: 10:51:36
(UTC-05:00)

Amateur Radio Satellites - All Passes

Search period start: 30 September 2014 10:21
Search period end: 01 October 2014 10:21
Location: Old Broadwell Mill Observatory, 33.8015°N, 85.8137°W

Satellite Date Start Highest point End Downlink Frequencies (MHz)
Time Altitude Azimuth
PCSat 30 Sep 10:37:38 10:42:03 25° 305° (NW) 10:46:29 145.825 MHz
ZACube-1 30 Sep 10:44:43 10:49:09 51° 99° (E) 10:53:28 437.345 MHz
Oscar 11 30 Sep 11:14:38 11:18:14 26° 289° (WNW) 11:21:48 145.825 FM, Beacon 2401.500 USB
FUNcube-1 30 Sep 11:36:09 11:40:22 39° 287° (WNW) 11:44:29 145.950 - 145.970 MHz USB
UKube-1 30 Sep 11:45:55 11:46:30 10° 295° (WNW) 11:47:04 145.840 MHz, 145.915 MHz
RS-15 30 Sep 11:51:18 12:02:33 79° 61° (ENE) 12:14:17 29.354 - 29.394 USB, Beacon 29.352 USB
HO-68 30 Sep 12:02:36 12:04:16 11° 305° (NW) 12:05:55 435.675 MHz FM
Oscar 16 30 Sep 12:09:59 12:12:02 12° 63° (ENE) 12:14:04 437.025 USB, Beacon 2401.1428
ZACube-1 30 Sep 12:23:06 12:25:01 13° 294° (WNW) 12:26:56 437.345 MHz
Saudisat 1A 30 Sep 12:45:39 12:47:02 11° 107° (ESE) 12:48:25 436.775 MHz
JAS-1B 30 Sep 12:55:07 13:01:31 29° 69° (ENE) 13:07:06 435.800 - 435.900 CW/SSB
Oscar 19 30 Sep 13:04:56 13:09:50 44° 72° (ENE) 13:14:44 437.125 CW, 437.150 USB
ITAMSAT 1 30 Sep 13:16:04 13:20:01 23° 67° (ENE) 13:23:59 435.822 SSB
Uribyol 2 30 Sep 13:16:56 13:21:04 25° 68° (ENE) 13:25:13 436.500 FM
Oscar 16 30 Sep 13:45:34 13:50:44 70° 258° (WSW) 13:55:55 437.025 USB, Beacon 2401.1428
AO-27 30 Sep 13:53:02 13:58:04 55° 73° (ENE) 14:03:07 436.795 MHz FM
AO-Echo 30 Sep 14:01:36 14:06:16 78° 76° (ENE) 14:10:59 ?
AO-7 30 Sep 14:01:46 14:02:48 10° 50° (NE) 14:03:50 29.400 - 29.500 MHz
RS-15 30 Sep 14:05:40 14:13:44 23° 258° (WSW) 14:22:06 29.354 - 29.394 USB, Beacon 29.352 USB
Gurwin Techsat 1B 30 Sep 14:13:48 14:18:42 40° 71° (ENE) 14:23:38 435.225 FM
Saudisat 1A 30 Sep 14:21:47 14:26:05 55° 301° (WNW) 14:30:25 436.775 MHz
TMSAT-1 30 Sep 14:42:38 14:47:47 56° 74° (ENE) 14:52:58 436.925 FM
JAS-1B 30 Sep 14:44:17 14:51:56 45° 259° (W) 14:58:24 435.800 - 435.900 CW/SSB
Oscar 19 30 Sep 14:45:49 14:49:18 18° 266° (W) 14:52:48 437.125 CW, 437.150 USB
ITAMSAT 1 30 Sep 14:54:32 14:59:15 36° 262° (W) 15:04:00 435.822 SSB
Uribyol 2 30 Sep 14:55:43 15:00:19 33° 262° (W) 15:04:59 436.500 FM
MaSat-1 30 Sep 14:59:07 15:01:36 20° 59° (ENE) 15:03:50 437.345 MHz
Uosat F 30 Sep 15:23:29 15:27:09 21° 67° (ENE) 15:30:49 435.120 FM
AO-27 30 Sep 15:35:10 15:37:51 14° 267° (W) 15:40:33 436.795 MHz FM
AO-7 30 Sep 15:45:47 15:53:53 60° 68° (ENE) 16:01:59 29.400 - 29.500 MHz
Gurwin Techsat 1B 30 Sep 15:54:53 15:58:45 21° 265° (W) 16:02:39 435.225 FM
JAS-2 30 Sep 16:19:44 16:20:57 11° 61° (ENE) 16:22:10 435.800 - 435.900 CW/SSB, 435.910 FM
TMSAT-1 30 Sep 16:25:14 16:28:00 14° 267° (W) 16:30:47 436.925 FM
MaSat-1 30 Sep 16:36:50 16:37:40 11° 259° (W) 16:38:29 437.345 MHz
Hamsat 30 Sep 16:40:43 16:42:00 11° 67° (ENE) 16:43:16 145.90 MHz
KITSAT 1 30 Sep 16:42:48 16:50:44 63° 112° (ESE) 16:58:41 435.175 FM
Uosat F 30 Sep 17:01:03 17:05:38 37° 261° (W) 17:10:16 435.120 FM
OPAL 30 Sep 17:10:34 17:15:18 38° 100° (E) 17:19:56 ?
Oscar 10/S400 30 Sep 17:27:36 17:46:15 69° 166° (SSE) 18:50:52 145.825 - 145.975 CW/USB, Beacon 145.810 USB
AO-7 30 Sep 17:40:31 17:47:00 25° 264° (W) 17:53:31 29.400 - 29.500 MHz
PCSat 30 Sep 17:46:35 17:49:41 15° 50° (NE) 17:52:47 145.825 MHz
JAS-2 30 Sep 18:00:10 18:05:18 71° 258° (WSW) 18:10:36 435.800 - 435.900 CW/SSB, 435.910 FM
Hamsat 30 Sep 18:13:12 18:17:27 53° 260° (W) 18:21:41 145.90 MHz
STRAND 1 30 Sep 18:13:51 18:15:18 11° 92° (E) 18:16:44 ?
KITSAT 1 30 Sep 18:39:58 18:46:37 27° 310° (NW) 18:53:18 435.175 FM
OPAL 30 Sep 18:50:08 18:53:52 21° 295° (WNW) 18:57:33 ?
PANSAT 30 Sep 18:59:04 19:01:36 17° 161° (SSE) 19:04:09 not established
Sapphire 30 Sep 19:02:33 19:07:56 63° 62° (ENE) 19:13:18 437.095 MHz 1200 baud AX-25 AFSK
SO-50 30 Sep 19:10:26 19:14:53 85° 118° (ESE) 19:19:27 436.795 FM
SO-67 30 Sep 19:12:25 19:15:51 83° 258° (WSW) 19:19:19 435.3500 MHz FM
PCSat 30 Sep 19:28:13 19:33:37 70° 247° (WSW) 19:38:58 145.825 MHz
UOSAT-12 30 Sep 19:43:26 19:45:35 13° 107° (ESE) 19:47:45 437.025 FM, 437.400 FM
STRAND 1 30 Sep 19:49:45 19:54:52 67° 285° (WNW) 19:59:58 ?
ISS 30 Sep 20:29:47 20:30:15 10° 125° (SE) 20:30:44 145.800 FM
Oscar 11 30 Sep 20:32:16 20:33:32 11° 66° (ENE) 20:34:48 145.825 FM, Beacon 2401.500 USB
HO-68 30 Sep 20:34:31 20:41:28 59° 71° (ENE) 20:48:28 435.675 MHz FM
PANSAT 30 Sep 20:37:50 20:41:20 33° 173° (S) 20:44:49 not established
Sapphire 30 Sep 20:48:07 20:50:45 14° 257° (WSW) 20:53:22 437.095 MHz 1200 baud AX-25 AFSK
SO-50 30 Sep 20:55:14 20:56:04 10° 315° (NW) 20:56:54 436.795 FM
UKube-1 30 Sep 20:58:30 21:02:18 31° 71° (ENE) 21:06:08 145.840 MHz, 145.915 MHz
UOSAT-12 30 Sep 21:20:43 21:25:12 53° 302° (WNW) 21:29:48 437.025 FM, 437.400 FM
ZACube-1 30 Sep 21:37:34 21:41:20 27° 70° (ENE) 21:45:10 437.345 MHz
ISS 30 Sep 22:03:17 22:06:33 56° 319° (NW) 22:09:49 145.800 FM
Oscar 11 30 Sep 22:04:56 22:09:12 54° 260° (W) 22:13:29 145.825 FM, Beacon 2401.500 USB
PANSAT 30 Sep 22:17:39 22:21:10 34° 186° (S) 22:24:41 not established
HO-68 30 Sep 22:24:19 22:29:29 21° 265° (W) 22:34:42 435.675 MHz FM
FUNcube-1 30 Sep 22:27:49 22:32:19 80° 258° (WSW) 22:36:56 145.950 - 145.970 MHz USB
UKube-1 30 Sep 22:35:34 22:38:30 18° 265° (W) 22:41:28 145.840 MHz, 145.915 MHz
Saudisat 1A 30 Sep 22:52:12 22:56:18 36° 56° (NE) 23:00:22 436.775 MHz
AO-40 30 Sep 23:06:51 00:41:49 26° 230° (SW) 03:53:43 Beacon 2401.320
ZACube-1 30 Sep 23:14:01 23:17:38 24° 265° (W) 23:21:19 437.345 MHz
PANSAT 30 Sep 23:58:11 00:00:54 19° 198° (SSW) 00:03:38 not established
RS-15 01 Oct 00:05:39 00:09:52 13° 98° (E) 00:14:01 29.354 - 29.394 USB, Beacon 29.352 USB
Saudisat 1A 01 Oct 00:32:36 00:35:34 18° 250° (WSW) 00:38:31 436.775 MHz
KITSAT 1 01 Oct 00:41:55 00:46:50 17° 42° (NE) 00:51:44 435.175 FM
Oscar 19 01 Oct 01:21:18 01:25:09 21° 95° (E) 01:28:58 437.125 CW, 437.150 USB
Uribyol 2 01 Oct 01:35:29 01:37:08 11° 92° (E) 01:38:47 436.500 FM
ITAMSAT 1 01 Oct 01:35:36 01:36:08 10° 91° (E) 01:36:41 435.822 SSB
Oscar 16 01 Oct 02:01:22 02:06:27 58° 101° (E) 02:11:28 437.025 USB, Beacon 2401.1428
RS-15 01 Oct 02:09:17 02:20:21 77° 115° (ESE) 02:31:14 29.354 - 29.394 USB, Beacon 29.352 USB
AO-27 01 Oct 02:10:31 02:14:56 27° 97° (E) 02:19:19 436.795 MHz FM
AO-Echo 01 Oct 02:12:29 02:17:07 35° 98° (E) 02:21:51 ?
JAS-1B 01 Oct 02:32:36 02:38:17 62° 102° (ESE) 02:44:35 435.800 - 435.900 CW/SSB
Gurwin Techsat 1B 01 Oct 02:34:34 02:38:38 22° 95° (E) 02:42:41 435.225 FM
KITSAT 1 01 Oct 02:35:26 02:43:33 79° 63° (ENE) 02:51:36 435.175 FM
Oscar 19 01 Oct 02:59:51 03:04:32 37° 289° (WNW) 03:09:11 437.125 CW, 437.150 USB
TMSAT-1 01 Oct 03:02:51 03:07:31 31° 97° (E) 03:12:09 436.925 FM
ITAMSAT 1 01 Oct 03:10:51 03:16:04 74° 285° (WNW) 03:21:16 435.822 SSB
Uribyol 2 01 Oct 03:11:48 03:17:00 67° 285° (WNW) 03:22:09 436.500 FM
Oscar 16 01 Oct 03:42:35 03:45:15 14° 295° (WNW) 03:47:54 437.025 USB, Beacon 2401.1428
SO-50 01 Oct 03:46:00 03:50:10 28° 54° (NE) 03:54:21 436.795 FM
AO-27 01 Oct 03:49:51 03:54:21 30° 291° (WNW) 03:58:50 436.795 MHz FM
AO-Echo 01 Oct 03:51:45 03:55:38 23° 291° (WNW) 03:59:36 ?
AO-7 01 Oct 03:52:52 03:59:16 24° 96° (E) 04:05:39 29.400 - 29.500 MHz
Gurwin Techsat 1B 01 Oct 04:13:47 04:18:38 37° 289° (WNW) 04:23:29 435.225 FM
OPAL 01 Oct 04:21:25 04:26:22 46° 70° (ENE) 04:31:20 ?
RS-15 01 Oct 04:24:40 04:33:45 29° 317° (NW) 04:42:52 29.354 - 29.394 USB, Beacon 29.352 USB
JAS-1B 01 Oct 04:25:28 04:28:32 15° 296° (WNW) 04:31:43 435.800 - 435.900 CW/SSB
KITSAT 1 01 Oct 04:33:03 04:37:59 18° 258° (WSW) 04:42:55 435.175 FM
ISS 01 Oct 04:35:18 04:38:09 26° 36° (NE) 04:41:00 145.800 FM
MaSat-1 01 Oct 04:37:38 04:41:43 27° 106° (ESE) 04:45:43 437.345 MHz
TMSAT-1 01 Oct 04:42:52 04:47:16 27° 291° (WNW) 04:51:40 436.925 FM
Uosat F 01 Oct 05:12:10 05:17:14 88° 284° (WNW) 05:22:16 435.120 FM
JAS-2 01 Oct 05:12:26 05:17:33 21° 95° (E) 05:22:56 435.800 - 435.900 CW/SSB, 435.910 FM
STRAND 1 01 Oct 05:26:29 05:28:16 12° 63° (ENE) 05:30:02 ?
SO-50 01 Oct 05:26:29 05:30:40 29° 248° (WSW) 05:34:51 436.795 FM
AO-7 01 Oct 05:44:17 05:52:25 62° 291° (WNW) 06:00:33 29.400 - 29.500 MHz
UOSAT-12 01 Oct 05:54:03 05:58:34 44° 57° (ENE) 06:02:59 437.025 FM, 437.400 FM
OPAL 01 Oct 06:01:56 06:05:24 18° 264° (W) 06:08:52 ?
Hamsat 01 Oct 06:03:03 06:06:53 34° 98° (E) 06:10:39 145.90 MHz
ISS 01 Oct 06:12:03 06:14:46 24° 231° (SW) 06:17:28 145.800 FM
MaSat-1 01 Oct 06:13:53 06:18:05 29° 298° (WNW) 06:22:10 437.345 MHz
RS-15 01 Oct 06:50:54 06:51:43 10° 352° (N) 06:52:32 29.354 - 29.394 USB, Beacon 29.352 USB
JAS-2 01 Oct 06:55:59 07:02:43 63° 286° (WNW) 07:10:08 435.800 - 435.900 CW/SSB, 435.910 FM
STRAND 1 01 Oct 07:01:44 07:06:47 70° 258° (WSW) 07:11:53 ?
UOSAT-12 01 Oct 07:35:24 07:38:18 17° 252° (WSW) 07:41:11 437.025 FM, 437.400 FM
Hamsat 01 Oct 07:40:01 07:42:31 16° 292° (WNW) 07:45:00 145.90 MHz
AO-7 01 Oct 07:41:50 07:43:32 11° 310° (NW) 07:45:15 29.400 - 29.500 MHz
Sapphire 01 Oct 08:00:15 08:02:49 14° 103° (ESE) 08:05:24 437.095 MHz 1200 baud AX-25 AFSK
HO-68 01 Oct 08:10:06 08:12:32 12° 91° (E) 08:14:57 435.675 MHz FM
SO-67 01 Oct 08:12:44 08:15:56 37° 285° (WNW) 08:19:08 435.3500 MHz FM
PCSat 01 Oct 08:23:41 08:28:08 27° 107° (ESE) 08:32:36 145.825 MHz
RS-15 01 Oct 09:04:24 09:11:14 18° 31° (NNE) 09:18:10 29.354 - 29.394 USB, Beacon 29.352 USB
Sapphire 01 Oct 09:40:17 09:45:37 63° 297° (WNW) 09:51:00 437.095 MHz 1200 baud AX-25 AFSK
HO-68 01 Oct 09:53:45 10:00:59 88° 106° (ESE) 10:08:11 435.675 MHz FM
Oscar 11 01 Oct 09:56:39 10:00:36 35° 98° (E) 10:04:32 145.825 FM, Beacon 2401.500 USB
PCSat 01 Oct 10:06:28 10:11:21 34° 302° (WNW) 10:16:16 145.825 MHz
